Time,TemperatureF,DewpointF,PressureIn,WindDirection,WindDirectionDegrees,WindSpeedMPH,WindSpeedGustMPH,Humidity,HourlyPrecipIn,Conditions,Clouds,dailyrainin,SoftwareType,DateUTC
2013-12-29 00:05:00,12.8,8.0,30.61,ESE,117,1.0,2.0,82,0.00,,,0.00,weatherlink.com 1.10,2013-12-29 07:05:00,
2013-12-29 00:20:00,10.4,6.0,30.62,West,266,1.0,4.0,82,0.00,,,0.00,weatherlink.com 1.10,2013-12-29 07:20:00,
2013-12-29 00:35:00,10.5,7.0,30.62,West,266,1.0,2.0,84,0.00,,,0.00,weatherlink.com 1.10,2013-12-29 07:35:00,
2013-12-29 00:50:00,11.9,8.0,30.63,West,266,2.0,4.0,84,0.00,,,0.00,weatherlink.com 1.10,2013-12-29 07:50:00,
2013-12-29 01:05:00,12.6,8.0,30.63,West,266,2.0,3.0,83,0.00,,,0.00,weatherlink.com 1.10,2013-12-29 08:05:00,
2013-12-29 01:20:00,13.5,10.0,30.64,West,266,1.0,4.0,84,0.00,,,0.00,weatherlink.com 1.10,2013-12-29 08:20:00,
2013-12-29 01:35:00,14.3,10.0,30.65,West,266,1.0,3.0,84,0.00,,,0.00,weatherlink.com 1.10,2013-12-29 08:35:00,
2013-12-29 01:50:00,15.2,12.0,30.65,West,266,1.0,3.0,85,0.00,,,0.00,weatherlink.com 1.10,2013-12-29 08:50:00,
2013-12-29 02:20:00,16.7,14.0,30.66,West,266,2.0,3.0,87,0.00,,,0.00,weatherlink.com 1.10,2013-12-29 09:20:00,
2013-12-29 02:36:00,17.0,14.0,30.66,SSW,209,3.0,6.0,86,0.00,,,0.00,weatherlink.com 1.10,2013-12-29 09:36:00,
2013-12-29 02:50:00,16.5,13.0,30.66,SSW,209,0.0,3.0,85,0.00,,,0.00,weatherlink.com 1.10,2013-12-29 09:50:00,
2013-12-29 03:06:00,16.2,13.0,30.66,SSW,209,1.0,2.0,85,0.00,,,0.00,weatherlink.com 1.10,2013-12-29 10:06:00,
2013-12-29 03:20:00,15.7,12.0,30.66,SSW,209,3.0,6.0,85,0.00,,,0.00,weatherlink.com 1.10,2013-12-29 10:20:00,
2013-12-29 03:35:00,14.4,11.0,30.65,SSW,209,0.0,4.0,85,0.00,,,0.00,weatherlink.com 1.10,2013-12-29 10:35:00,
2013-12-29 03:51:00,12.8,9.0,30.64,SSW,209,2.0,4.0,83,0.00,,,0.00,weatherlink.com 1.10,2013-12-29 10:51:00,
2013-12-29 04:06:00,9.3,5.0,30.65,WSW,246,1.0,4.0,81,0.00,,,0.00,weatherlink.com 1.10,2013-12-29 11:06:00,
2013-12-29 04:21:00,8.8,4.0,30.65,WSW,239,2.0,4.0,82,0.00,,,0.00,weatherlink.com 1.10,2013-12-29 11:21:00,
2013-12-29 04:36:00,9.9,6.0,30.65,SSW,209,4.0,5.0,82,0.00,,,0.00,weatherlink.com 1.10,2013-12-29 11:36:00,
2013-12-29 04:51:00,9.2,5.0,30.66,SSW,209,2.0,5.0,82,0.00,,,0.00,weatherlink.com 1.10,2013-12-29 11:51:00,
2013-12-29 05:06:00,8.4,4.0,30.66,SSW,209,2.0,4.0,81,0.00,,,0.00,weatherlink.com 1.10,2013-12-29 12:06:00,
2013-12-29 05:21:00,8.1,3.0,30.66,SSW,212,3.0,5.0,81,0.00,,,0.00,weatherlink.com 1.10,2013-12-29 12:21:00,
2013-12-29 05:36:00,7.6,3.0,30.66,SSW,212,2.0,5.0,80,0.00,,,0.00,weatherlink.com 1.10,2013-12-29 12:36:00,
2013-12-29 05:51:00,7.0,2.0,30.66,SSW,212,3.0,4.0,80,0.00,,,0.00,weatherlink.com 1.10,2013-12-29 12:51:00,
2013-12-29 06:06:00,5.2,0.0,30.65,SSW,212,2.0,4.0,78,0.00,,,0.00,weatherlink.com 1.10,2013-12-29 13:06:00,
2013-12-29 06:21:00,3.0,-3.0,30.64,WSW,244,0.0,3.0,77,0.00,,,0.00,weatherlink.com 1.10,2013-12-29 13:21:00,
2013-12-29 06:36:00,1.8,-4.0,30.64,WSW,244,0.0,1.0,77,0.00,,,0.00,weatherlink.com 1.10,2013-12-29 13:36:00,
2013-12-29 06:51:00,0.9,-5.0,30.65,WSW,243,0.0,1.0,77,0.00,,,0.00,weatherlink.com 1.10,2013-12-29 13:51:00,
2013-12-29 07:06:00,1.1,-4.0,30.66,West,274,0.0,2.0,78,0.00,,,0.00,weatherlink.com 1.10,2013-12-29 14:06:00,
2013-12-29 07:21:00,1.8,-4.0,30.66,West,274,0.0,1.0,78,0.00,,,0.00,weatherlink.com 1.10,2013-12-29 14:21:00,
2013-12-29 07:36:00,1.8,-4.0,30.66,West,274,0.0,2.0,77,0.00,,,0.00,weatherlink.com 1.10,2013-12-29 14:36:00,
2013-12-29 07:51:00,0.5,-5.0,30.66,West,274,0.0,1.0,76,0.00,,,0.00,weatherlink.com 1.10,2013-12-29 14:51:00,
2013-12-29 08:06:00,0.1,-6.0,30.66,West,274,0.0,2.0,77,0.00,,,0.00,weatherlink.com 1.10,2013-12-29 15:06:00,
2013-12-29 08:21:00,-0.2,-6.0,30.66,West,274,0.0,1.0,75,0.00,,,0.00,weatherlink.com 1.10,2013-12-29 15:21:00,
2013-12-29 08:37:00,-0.2,-6.0,30.66,West,274,0.0,0.0,77,0.00,,,0.00,weatherlink.com 1.10,2013-12-29 15:37:00,
2013-12-29 08:52:00,1.5,-4.0,30.66,West,274,0.0,2.0,78,0.00,,,0.00,weatherlink.com 1.10,2013-12-29 15:52:00,
2013-12-29 09:07:00,3.2,-2.0,30.66,West,274,0.0,0.0,78,0.00,,,0.00,weatherlink.com 1.10,2013-12-29 16:07:00,
2013-12-29 09:22:00,5.2,0.0,30.65,West,274,1.0,2.0,79,0.00,,,0.00,weatherlink.com 1.10,2013-12-29 16:22:00,
2013-12-29 09:37:00,8.1,3.0,30.65,West,274,0.0,2.0,81,0.00,,,0.00,weatherlink.com 1.10,2013-12-29 16:37:00,
2013-12-29 09:52:00,8.6,4.0,30.65,West,274,0.0,2.0,81,0.00,,,0.00,weatherlink.com 1.10,2013-12-29 16:52:00,
2013-12-29 10:07:00,9.9,5.0,30.65,West,274,0.0,1.0,81,0.00,,,0.00,weatherlink.com 1.10,2013-12-29 17:07:00,
2013-12-29 10:22:00,11.1,7.0,30.64,West,274,0.0,0.0,82,0.00,,,0.00,weatherlink.com 1.10,2013-12-29 17:22:00,
2013-12-29 10:37:00,11.4,7.0,30.64,West,274,0.0,2.0,82,0.00,,,0.00,weatherlink.com 1.10,2013-12-29 17:37:00,
2013-12-29 10:52:00,13.6,9.0,30.63,West,274,0.0,1.0,82,0.00,,,0.00,weatherlink.com 1.10,2013-12-29 17:52:00,
2013-12-29 11:07:00,16.2,12.0,30.63,West,274,1.0,2.0,84,0.00,,,0.00,weatherlink.com 1.10,2013-12-29 18:07:00,
2013-12-29 11:22:00,15.6,11.0,30.61,West,274,0.0,1.0,83,0.00,,,0.00,weatherlink.com 1.10,2013-12-29 18:22:00,
2013-12-29 11:37:00,16.1,12.0,30.60,West,274,1.0,3.0,82,0.01,,,0.01,weatherlink.com 1.10,2013-12-29 18:37:00,
2013-12-29 11:52:00,15.9,12.0,30.59,West,273,0.0,2.0,83,0.01,,,0.01,weatherlink.com 1.10,2013-12-29 18:52:00,
2013-12-29 12:08:00,18.1,14.0,30.57,West,274,1.0,1.0,84,0.01,,,0.01,weatherlink.com 1.10,2013-12-29 19:08:00,
2013-12-29 12:23:00,18.0,13.0,30.55,West,274,3.0,3.0,82,0.01,,,0.01,weatherlink.com 1.10,2013-12-29 19:23:00,
2013-12-29 12:38:00,14.6,10.0,30.56,East,90,6.0,8.0,80,0.00,,,0.01,weatherlink.com 1.10,2013-12-29 19:38:00,
2013-12-29 12:53:00,14.0,10.0,30.56,NE,48,3.0,7.0,82,0.00,,,0.01,weatherlink.com 1.10,2013-12-29 19:53:00,
2013-12-29 13:08:00,14.1,10.0,30.55,East,80,3.0,8.0,82,0.00,,,0.01,weatherlink.com 1.10,2013-12-29 20:08:00,
2013-12-29 13:23:00,14.0,10.0,30.54,East,80,3.0,4.0,82,0.00,,,0.01,weatherlink.com 1.10,2013-12-29 20:23:00,
2013-12-29 13:38:00,14.3,10.0,30.53,East,95,1.0,5.0,83,0.01,,,0.02,weatherlink.com 1.10,2013-12-29 20:38:00,
2013-12-29 13:53:00,15.1,11.0,30.52,East,95,2.0,3.0,82,0.01,,,0.02,weatherlink.com 1.10,2013-12-29 20:53:00,
2013-12-29 14:08:00,15.9,12.0,30.52,East,95,0.0,2.0,83,0.01,,,0.02,weatherlink.com 1.10,2013-12-29 21:08:00,
2013-12-29 14:23:00,17.2,13.0,30.51,East,96,0.0,2.0,83,0.01,,,0.02,weatherlink.com 1.10,2013-12-29 21:23:00,
2013-12-29 14:38:00,18.0,13.0,30.50,East,95,1.0,5.0,81,0.01,,,0.03,weatherlink.com 1.10,2013-12-29 21:38:00,
2013-12-29 14:53:00,17.3,12.0,30.50,East,96,5.0,5.0,81,0.01,,,0.03,weatherlink.com 1.10,2013-12-29 21:53:00,
2013-12-29 15:08:00,16.4,12.0,30.50,East,94,6.0,7.0,81,0.01,,,0.03,weatherlink.com 1.10,2013-12-29 22:08:00,
2013-12-29 15:23:00,15.6,11.0,30.50,ESE,102,4.0,7.0,82,0.01,,,0.03,weatherlink.com 1.10,2013-12-29 22:23:00,
2013-12-29 15:39:00,15.6,11.0,30.50,East,98,1.0,5.0,83,0.00,,,0.03,weatherlink.com 1.10,2013-12-29 22:39:00,
2013-12-29 15:54:00,17.3,13.0,30.50,East,99,1.0,3.0,83,0.00,,,0.03,weatherlink.com 1.10,2013-12-29 22:54:00,
2013-12-29 16:09:00,18.3,14.0,30.49,East,99,0.0,2.0,82,0.00,,,0.03,weatherlink.com 1.10,2013-12-29 23:09:00,
2013-12-29 16:24:00,17.7,13.0,30.48,East,99,1.0,3.0,83,0.00,,,0.03,weatherlink.com 1.10,2013-12-29 23:24:00,
2013-12-29 16:39:00,17.8,14.0,30.47,WSW,247,5.0,6.0,83,0.00,,,0.03,weatherlink.com 1.10,2013-12-29 23:39:00,
2013-12-29 16:54:00,19.4,15.0,30.47,SW,214,6.0,6.0,83,0.00,,,0.03,weatherlink.com 1.10,2013-12-29 23:54:00,
2013-12-29 17:09:00,19.5,15.0,30.47,East,81,8.0,10.0,81,0.00,,,0.03,weatherlink.com 1.10,2013-12-30 00:09:00,
2013-12-29 17:24:00,18.4,13.0,30.47,SW,224,0.0,3.0,80,0.00,,,0.03,weatherlink.com 1.10,2013-12-30 00:24:00,
2013-12-29 17:39:00,19.4,14.0,30.46,West,275,1.0,5.0,79,0.00,,,0.03,weatherlink.com 1.10,2013-12-30 00:39:00,
2013-12-29 17:54:00,20.3,14.0,30.45,SW,235,0.0,5.0,77,0.00,,,0.03,weatherlink.com 1.10,2013-12-30 00:54:00,
2013-12-29 18:09:00,21.0,15.0,30.46,WSW,237,2.0,3.0,78,0.00,,,0.03,weatherlink.com 1.10,2013-12-30 01:09:00,
2013-12-29 18:24:00,21.3,15.0,30.46,SW,236,1.0,4.0,78,0.00,,,0.03,weatherlink.com 1.10,2013-12-30 01:24:00,
2013-12-29 18:39:00,20.6,15.0,30.47,WSW,239,3.0,4.0,78,0.00,,,0.03,weatherlink.com 1.10,2013-12-30 01:39:00,
2013-12-29 18:54:00,20.0,13.0,30.48,NW,311,2.0,4.0,74,0.00,,,0.03,weatherlink.com 1.10,2013-12-30 01:54:00,
2013-12-29 19:10:00,19.2,13.0,30.48,SW,234,8.0,8.0,78,0.00,,,0.03,weatherlink.com 1.10,2013-12-30 02:10:00,
2013-12-29 19:25:00,21.4,15.0,30.49,WSW,253,2.0,10.0,75,0.00,,,0.03,weatherlink.com 1.10,2013-12-30 02:25:00,
2013-12-29 19:40:00,21.1,13.0,30.49,SW,233,4.0,5.0,71,0.00,,,0.03,weatherlink.com 1.10,2013-12-30 02:40:00,
2013-12-29 19:55:00,22.1,14.0,30.49,NW,320,2.0,9.0,70,0.00,,,0.03,weatherlink.com 1.10,2013-12-30 02:55:00,
2013-12-29 20:10:00,21.6,14.0,30.50,SW,218,4.0,7.0,71,0.00,,,0.03,weatherlink.com 1.10,2013-12-30 03:10:00,
2013-12-29 20:25:00,21.6,14.0,30.50,WSW,240,7.0,7.0,72,0.00,,,0.03,weatherlink.com 1.10,2013-12-30 03:25:00,
2013-12-29 20:40:00,20.0,12.0,30.51,SW,230,8.0,8.0,72,0.00,,,0.03,weatherlink.com 1.10,2013-12-30 03:40:00,
2013-12-29 20:55:00,21.1,15.0,30.52,SW,231,3.0,6.0,76,0.00,,,0.03,weatherlink.com 1.10,2013-12-30 03:55:00,
2013-12-29 21:10:00,21.9,14.0,30.52,SSW,210,5.0,7.0,72,0.00,,,0.03,weatherlink.com 1.10,2013-12-30 04:10:00,
2013-12-29 21:25:00,21.4,13.0,30.52,WNW,297,3.0,6.0,71,0.00,,,0.03,weatherlink.com 1.10,2013-12-30 04:25:00,
2013-12-29 21:40:00,22.9,15.0,30.52,WSW,242,4.0,7.0,73,0.00,,,0.03,weatherlink.com 1.10,2013-12-30 04:40:00,
2013-12-29 21:55:00,25.4,16.0,30.52,NNW,336,6.0,9.0,68,0.00,,,0.03,weatherlink.com 1.10,2013-12-30 04:55:00,
2013-12-29 22:25:00,31.2,16.0,30.52,WNW,300,14.0,24.0,53,0.00,,,0.03,weatherlink.com 1.10,2013-12-30 05:25:00,
2013-12-29 22:41:00,31.6,17.0,30.53,NW,304,15.0,18.0,54,0.00,,,0.03,weatherlink.com 1.10,2013-12-30 05:41:00,
2013-12-29 22:56:00,31.2,17.0,30.53,West,265,4.0,13.0,55,0.00,,,0.03,weatherlink.com 1.10,2013-12-30 05:56:00,
2013-12-29 23:11:00,29.5,17.0,30.54,ENE,77,3.0,7.0,59,0.00,,,0.03,weatherlink.com 1.10,2013-12-30 06:11:00,
2013-12-29 23:26:00,29.3,16.0,30.55,SSW,194,0.0,5.0,59,0.00,,,0.03,weatherlink.com 1.10,2013-12-30 06:26:00,
2013-12-29 23:41:00,27.2,16.0,30.55,SSW,194,1.0,4.0,63,0.00,,,0.03,weatherlink.com 1.10,2013-12-30 06:41:00,
2013-12-29 23:56:00,24.8,14.0,30.55,West,263,4.0,6.0,64,0.00,,,0.03,weatherlink.com 1.10,2013-12-30 06:56:00,